Simultaneous Nadir Overpasses (SNOs) Predictions

Prediction of SNOs between AQUA and GOES-15 Satellite Orbit:

Table of predicted SNOs for the next 14.0 days since TLE Epoch: 12/25/2015
Index Date Time (AQUA) AQUA Lat,Lon GOES-15 Lat,Lon Distance(km) Time Diff (sec)
1 12/25/2015 10:44:05 0.38,-137.10 -0.08,-134.88 252.60 80
2 12/27/2015 10:31:53 -0.20,-134.13 -0.07,-134.79 74.58 80
3 12/29/2015 10:19:42 -0.85,-131.18 -0.07,-134.70 401.51 80
4 12/29/2015 22:41:06 -0.26,-136.37 0.08,-134.65 194.74 80
5 12/31/2015 22:28:53 0.30,-133.39 0.08,-134.56 132.08 80
6 01/01/2016 10:50:09 0.77,-138.56 -0.09,-134.57 453.30 80
7 01/02/2016 22:16:41 0.93,-130.43 0.08,-134.47 458.55 80
8 01/03/2016 10:37:57 0.13,-135.60 -0.09,-134.47 127.04 80
9 01/05/2016 10:25:44 -0.46,-132.63 -0.08,-134.37 198.77 80
10 01/05/2016 22:47:07 -0.68,-137.81 0.09,-134.31 398.57 80
11 01/07/2016 22:34:54 -0.07,-134.84 0.08,-134.20 73.43 80




NCC Satellite Simultaneous Nadir Overpasses (SNOs) Prediction Service
